Aiken, SC

3:51 AM EDT on April 22, 2018 (GMT -0400)
Aiken Municipal

Weather History for KAIK - October, 2013

Change the Weather History Date:

Tuesday, October 8, 2013

  Actual Average Record
Temperature  
Mean Temperature 64 °F -  
Max Temperature 68 °F 80 °F 87 °F (2014)
Min Temperature 59 °F 52 °F 51 °F (2010)
Degree Days  
Heating Degree Days 2    
Growing Degree Days 14 (Base 50)    
Moisture  
Dew Point 54 °F    
Average Humidity 74    
Maximum Humidity 100    
Minimum Humidity 60    
Precipitation  
Precipitation 0.00 in - - ()
Sea Level Pressure  
Sea Level Pressure 30.09 in    
Wind  
Wind Speed 11 mph (NE)    
Max Wind Speed 21 mph    
Max Gust Speed 28 mph    
Visibility 10 miles    
Events Rain    
Averages and records for this station are not official NWS values.
T = Trace of Precipitation, MM = Missing Value Source: NWS Daily Summary

Daily Weather History Graph

Daily Weather History Graph

Search for Another Location

Airport or City:

Astronomy

Oct. 08, 2013 Rise Set
Actual Time 7:26 AM EDT 7:01 PM EDT
Civil Twilight 7:01 AM EDT 7:26 PM EDT
Nautical Twilight 6:32 AM EDT 7:55 PM EDT
Astronomical Twilight 6:03 AM EDT 8:24 PM EDT
Moon 11:08 AM EDT (10/8) 9:47 PM EDT (10/8)
Length of Visible Light 12h 24m
Length of Day
11h 35m
Waxing Crescent, 16% of the Moon is Illuminated
Oct 8
Waxing Crescent
Oct 11
First Quarter
Oct 18
Full
Oct 26
Last Quarter
Nov 3
New

Hourly Weather History & Observations

Time (EDT) Temp. Dew Point Humidity Pressure Visibility Wind Dir Wind Speed Gust Speed Precip Events Conditions
12:15 AM 68.0 °F 68.0 °F 100% 29.99 in 4.0 mi Calm Calm - N/A Rain Heavy Rain
12:35 AM 68.0 °F 68.0 °F 100% 29.98 in 10.0 mi NE 10.4 mph - N/A Rain Rain
12:55 AM 68.0 °F 68.0 °F 100% 29.98 in 10.0 mi ENE 12.7 mph - N/A Rain Rain
1:15 AM 68.0 °F 68.0 °F 100% 29.97 in 10.0 mi NNE 9.2 mph - N/A Rain Light Rain
1:35 AM 64.4 °F 64.4 °F 100% 29.96 in 10.0 mi NNE 16.1 mph 23.0 mph N/A Rain Light Rain
1:55 AM 66.2 °F 66.2 °F 100% 29.95 in 10.0 mi North 9.2 mph - N/A Rain Light Rain
2:15 AM 64.4 °F 60.8 °F 88% 29.95 in 10.0 mi NNE 13.8 mph 18.4 mph N/A Rain Light Rain
2:35 AM 64.4 °F 60.8 °F 88% 29.96 in 10.0 mi NNE 10.4 mph - N/A Rain Light Rain
2:55 AM 62.6 °F 59.0 °F 88% 29.96 in 10.0 mi NE 10.4 mph - N/A   Clear
3:15 AM 62.6 °F 59.0 °F 88% 29.96 in 10.0 mi NNE 10.4 mph - N/A   Scattered Clouds
3:35 AM 62.6 °F 57.2 °F 82% 29.96 in 10.0 mi NNE 9.2 mph - N/A   Scattered Clouds
3:55 AM 62.6 °F 57.2 °F 82% 29.97 in 10.0 mi NNE 9.2 mph - N/A   Mostly Cloudy
4:15 AM 62.6 °F 55.4 °F 77% 29.97 in 10.0 mi NNE 9.2 mph - N/A   Overcast
4:35 AM 62.6 °F 55.4 °F 77% 29.97 in 10.0 mi NNE 10.4 mph - N/A   Mostly Cloudy
4:55 AM 62.6 °F 55.4 °F 77% 29.98 in 10.0 mi NNE 12.7 mph - N/A   Mostly Cloudy
5:15 AM 62.6 °F 53.6 °F 72% 29.99 in 10.0 mi NE 9.2 mph - N/A   Overcast
5:35 AM 62.6 °F 53.6 °F 72% 30.00 in 10.0 mi NNE 10.4 mph - N/A   Overcast
5:55 AM 62.6 °F 53.6 °F 72% 30.01 in 10.0 mi NE 9.2 mph - N/A   Overcast
6:15 AM 62.6 °F 53.6 °F 72% 30.02 in 10.0 mi NE 11.5 mph - N/A   Overcast
6:35 AM 62.6 °F 53.6 °F 72% 30.03 in 10.0 mi NNE 9.2 mph - N/A   Overcast
6:55 AM 62.6 °F 51.8 °F 68% 30.03 in 10.0 mi NNE 8.1 mph - N/A   Overcast
7:15 AM 62.6 °F 51.8 °F 68% 30.04 in 10.0 mi NNE 10.4 mph - N/A   Overcast
7:35 AM 62.6 °F 51.8 °F 68% 30.05 in 10.0 mi NE 9.2 mph - N/A   Overcast
7:55 AM 62.6 °F 51.8 °F 68% 30.05 in 10.0 mi NNE 10.4 mph - N/A   Overcast
8:15 AM 62.6 °F 51.8 °F 68% 30.06 in 10.0 mi NNE 12.7 mph 17.3 mph N/A   Overcast
8:35 AM 62.6 °F 51.8 °F 68% 30.06 in 10.0 mi NNE 10.4 mph - N/A   Overcast
8:55 AM 62.6 °F 51.8 °F 68% 30.07 in 10.0 mi NNE 12.7 mph - N/A   Overcast
9:15 AM 62.6 °F 51.8 °F 68% 30.08 in 10.0 mi NNE 12.7 mph 19.6 mph N/A   Overcast
9:35 AM 64.4 °F 51.8 °F 64% 30.09 in 10.0 mi NE 17.3 mph 23.0 mph N/A   Overcast
9:55 AM 64.4 °F 51.8 °F 64% 30.09 in 10.0 mi NE 13.8 mph 20.7 mph N/A   Overcast
10:15 AM 64.4 °F 51.8 °F 64% 30.09 in 10.0 mi NNE 16.1 mph 23.0 mph N/A   Overcast
10:35 AM 64.4 °F 51.8 °F 64% 30.10 in 10.0 mi NE 17.3 mph 24.2 mph N/A   Overcast
10:55 AM 64.4 °F 51.8 °F 64% 30.11 in 10.0 mi NE 17.3 mph 25.3 mph N/A   Overcast
11:15 AM 64.4 °F 51.8 °F 64% 30.12 in 10.0 mi NE 19.6 mph 25.3 mph N/A   Overcast
11:35 AM 66.2 °F 51.8 °F 60% 30.12 in 10.0 mi ENE 20.7 mph 25.3 mph N/A   Overcast
11:55 AM 64.4 °F 51.8 °F 64% 30.12 in 10.0 mi NE 17.3 mph 20.7 mph N/A   Overcast
12:15 PM 66.2 °F 51.8 °F 60% 30.12 in 10.0 mi NE 16.1 mph 24.2 mph N/A   Overcast
12:35 PM 66.2 °F 51.8 °F 60% 30.12 in 10.0 mi NNE 15.0 mph 23.0 mph N/A   Overcast
12:55 PM 64.4 °F 51.8 °F 64% 30.12 in 10.0 mi NE 13.8 mph 20.7 mph N/A   Overcast
1:15 PM 64.4 °F 51.8 °F 64% 30.12 in 10.0 mi NNE 17.3 mph 24.2 mph N/A   Overcast
1:35 PM 64.4 °F 51.8 °F 64% 30.13 in 10.0 mi NE 18.4 mph 27.6 mph N/A   Overcast
1:55 PM 62.6 °F 51.8 °F 68% 30.13 in 10.0 mi NE 15.0 mph 23.0 mph N/A   Overcast
2:15 PM 60.8 °F 53.6 °F 77% 30.13 in 7.0 mi NE 15.0 mph 25.3 mph N/A   Drizzle
2:35 PM 60.8 °F 53.6 °F 77% 30.12 in 10.0 mi NE 12.7 mph 23.0 mph N/A   Overcast
2:55 PM 60.8 °F 53.6 °F 77% 30.12 in 10.0 mi NE 16.1 mph 24.2 mph N/A   Overcast
3:15 PM 60.8 °F 51.8 °F 72% 30.12 in 10.0 mi NE 13.8 mph - N/A   Overcast
3:35 PM 60.8 °F 51.8 °F 72% 30.13 in 10.0 mi NNE 15.0 mph 19.6 mph N/A   Overcast
3:55 PM 60.8 °F 51.8 °F 72% 30.13 in 10.0 mi NE 19.6 mph - N/A   Overcast
4:15 PM 60.8 °F 51.8 °F 72% 30.14 in 10.0 mi NE 18.4 mph 25.3 mph N/A   Overcast
4:35 PM 60.8 °F 51.8 °F 72% 30.14 in 10.0 mi NE 11.5 mph - N/A   Overcast
4:55 PM 60.8 °F 51.8 °F 72% 30.14 in 10.0 mi NE 20.7 mph 27.6 mph N/A   Overcast
5:15 PM 59.0 °F 51.8 °F 77% 30.14 in 10.0 mi NE 12.7 mph - N/A Rain Light Rain
5:35 PM 59.0 °F 51.8 °F 77% 30.14 in 10.0 mi NNE 12.7 mph - N/A Rain Light Rain
5:55 PM 59.0 °F 51.8 °F 77% 30.15 in 10.0 mi NNE 11.5 mph 24.2 mph N/A   Overcast
6:15 PM 59.0 °F 51.8 °F 77% 30.15 in 10.0 mi NNE 15.0 mph 21.9 mph N/A   Overcast
6:35 PM 59.0 °F 51.8 °F 77% 30.16 in 10.0 mi NE 16.1 mph 19.6 mph N/A   Overcast
6:55 PM 59.0 °F 51.8 °F 77% 30.16 in 10.0 mi NE 18.4 mph 23.0 mph N/A   Overcast
7:15 PM 59.0 °F 50.0 °F 72% 30.16 in 10.0 mi NE 12.7 mph 23.0 mph N/A   Overcast
7:35 PM 59.0 °F 50.0 °F 72% 30.16 in 10.0 mi NE 12.7 mph 18.4 mph N/A   Overcast
7:55 PM 59.0 °F 50.0 °F 72% 30.16 in 10.0 mi NE 12.7 mph 19.6 mph N/A   Overcast
8:15 PM 59.0 °F 50.0 °F 72% 30.16 in 10.0 mi NE 13.8 mph - N/A   Overcast
8:35 PM 59.0 °F 50.0 °F 72% 30.17 in 10.0 mi NE 11.5 mph 16.1 mph N/A   Overcast
8:55 PM 59.0 °F 50.0 °F 72% 30.17 in 10.0 mi NE 10.4 mph 17.3 mph N/A   Overcast
9:15 PM 59.0 °F 50.0 °F 72% 30.17 in 10.0 mi NNE 6.9 mph - N/A   Overcast
9:35 PM 59.0 °F 50.0 °F 72% 30.17 in 10.0 mi NNE 6.9 mph - N/A   Overcast
9:55 PM 59.0 °F 50.0 °F 72% 30.18 in 10.0 mi NE 9.2 mph - N/A   Overcast
10:15 PM 59.0 °F 50.0 °F 72% 30.18 in 10.0 mi NE 9.2 mph 16.1 mph N/A   Overcast
10:35 PM 59.0 °F 50.0 °F 72% 30.18 in 10.0 mi NE 11.5 mph - N/A   Overcast
10:55 PM 59.0 °F 48.2 °F 67% 30.18 in 10.0 mi NE 15.0 mph 24.2 mph N/A   Mostly Cloudy
11:15 PM 59.0 °F 48.2 °F 67% 30.18 in 10.0 mi NE 10.4 mph 17.3 mph N/A   Mostly Cloudy
11:35 PM 59.0 °F 48.2 °F 67% 30.18 in 10.0 mi NE 10.4 mph 17.3 mph N/A   Overcast
11:55 PM 59.0 °F 50.0 °F 72% 30.17 in 10.0 mi NE 10.4 mph - N/A   Overcast